• In Latvia
  • List of Countries
  • For 7 days
  • Water Temperature
  • Satellite Maps
  • Weather Map
  • Weather Widgets
  • user-avatar
    Login

    Hourly Weather Eisenstadt

    Today, 4 December, Sunday

    Time Temperature Precipitation Wind Pressure Humidity
    00:00 -4°C° 0 mm 0 mps 729 mmHg 85%
    01:00 -4°C° 0 mm 0 mps 729 mmHg 85%
    02:00 -4°C° 0 mm 0 mps 729 mmHg 85%
    03:00 -4°C° 0 mm 0 mps 729 mmHg 85%
    04:00 -4°C° 0 mm 0 mps 729 mmHg 86%
    05:00 -3°C° 0 mm 1 mps 729 mmHg 86%
    06:00 -3°C° 0 mm 1 mps 729 mmHg 86%
    07:00 -3°C° 0 mm 1 mps 730 mmHg 85%
    08:00 -2°C° 0 mm 1 mps 730 mmHg 79%
    09:00 -1°C° 0 mm 1 mps 730 mmHg 73%
    10:00 +1°C° 0 mm 1 mps 731 mmHg 67%
    11:00 +1°C° 0 mm 1 mps 731 mmHg 64%
    12:00 +2°C° 0 mm 1 mps 731 mmHg 60%
    13:00 +3°C° 0 mm 1 mps 731 mmHg 57%
    14:00 +1°C° 0 mm 1 mps 731 mmHg 64%
    15:00 0°C° 0 mm 1 mps 730 mmHg 71%
    16:00 -2°C° 0 mm 1 mps 730 mmHg 78%
    17:00 -2°C° 0 mm 1 mps 731 mmHg 79%
    18:00 -2°C° 0 mm 1 mps 731 mmHg 80%
    19:00 -2°C° 0 mm 1 mps 731 mmHg 80%
    20:00 -2°C° 0 mm 1 mps 731 mmHg 80%
    21:00 -2°C° 0 mm 1 mps 732 mmHg 79%
    22:00 -2°C° 0 mm 1 mps 732 mmHg 78%
    23:00 -4°C° 0 mm 2 mps 732 mmHg 77%

    Tomorrow, 5 December, Monday

    Time Temperature Precipitation Wind Pressure Humidity
    00:00 -4°C° 0 mm 2 mps 732 mmHg 76%
    01:00 -4°C° 0 mm 2 mps 732 mmHg 76%
    02:00 -4°C° 0 mm 2 mps 732 mmHg 75%
    03:00 -4°C° 0 mm 2 mps 731 mmHg 73%
    04:00 -5°C° 0 mm 2 mps 731 mmHg 72%
    05:00 -5°C° 0 mm 2 mps 731 mmHg 72%
    06:00 -5°C° 0 mm 2 mps 731 mmHg 72%
    07:00 -5°C° 0 mm 2 mps 731 mmHg 71%
    08:00 -3°C° 0 mm 2 mps 731 mmHg 67%
    09:00 -2°C° 0 mm 2 mps 731 mmHg 62%
    10:00 -1°C° 0 mm 3 mps 731 mmHg 58%
    11:00 0°C° 0 mm 3 mps 731 mmHg 56%
    12:00 +1°C° 0 mm 3 mps 731 mmHg 54%
    13:00 +2°C° 0 mm 2 mps 730 mmHg 52%
    14:00 +1°C° 0 mm 2 mps 730 mmHg 60%
    15:00 -2°C° 0 mm 2 mps 730 mmHg 68%
    16:00 -3°C° 0 mm 2 mps 729 mmHg 76%
    17:00 -2°C° 0 mm 1 mps 729 mmHg 77%
    18:00 -2°C° 0 mm 1 mps 729 mmHg 79%
    19:00 -2°C° 0 mm 1 mps 729 mmHg 81%
    20:00 -2°C° 0 mm 1 mps 729 mmHg 82%
    21:00 -2°C° 0 mm 1 mps 729 mmHg 82%
    22:00 -2°C° 0 mm 1 mps 729 mmHg 83%
    23:00 -2°C° 0 mm 1 mps 729 mmHg 83%

    Day after tomorrow, 6 December, Tuesday

    Time Temperature Precipitation Wind Pressure Humidity
    00:00 -2°C° 0 mm 1 mps 729 mmHg 83%
    01:00 -2°C° 0 mm 1 mps 729 mmHg 83%
    02:00 -2°C° 0 mm 1 mps 729 mmHg 82%
    03:00 -2°C° 0 mm 1 mps 729 mmHg 81%
    04:00 -2°C° 0 mm 1 mps 728 mmHg 81%
    05:00 -2°C° 0 mm 1 mps 728 mmHg 81%
    06:00 -2°C° 0 mm 1 mps 729 mmHg 81%
    07:00 -2°C° 0 mm 1 mps 729 mmHg 81%
    08:00 0°C° 0 mm 1 mps 729 mmHg 73%
    09:00 +2°C° 0 mm 1 mps 729 mmHg 66%
    10:00 +3°C° 0 mm 1 mps 730 mmHg 58%
    11:00 +4°C° 0 mm 1 mps 730 mmHg 56%
    12:00 +5°C° 0 mm 1 mps 730 mmHg 54%
    13:00 +6°C° 0 mm 1 mps 730 mmHg 52%
    14:00 +4°C° 0 mm 1 mps 730 mmHg 61%
    15:00 +1°C° 0 mm 2 mps 730 mmHg 70%
    16:00 -2°C° 0 mm 2 mps 729 mmHg 79%
    17:00 -2°C° 0 mm 2 mps 730 mmHg 79%
    18:00 -2°C° 0 mm 2 mps 730 mmHg 80%
    19:00 -3°C° 0 mm 2 mps 731 mmHg 80%
    20:00 -3°C° 0 mm 2 mps 731 mmHg 81%
    21:00 -3°C° 0 mm 2 mps 732 mmHg 81%
    22:00 -3°C° 0 mm 2 mps 732 mmHg 82%
    23:00 -3°C° 0 mm 2 mps 732 mmHg 83%

    7 December, Wednesday

    Time Temperature Precipitation Wind Pressure Humidity
    00:00 -3°C° 0 mm 2 mps 732 mmHg 83%
    01:00 -3°C° 0 mm 2 mps 732 mmHg 83%
    02:00 -4°C° 0 mm 2 mps 733 mmHg 83%
    03:00 -4°C° 0 mm 2 mps 733 mmHg 84%
    04:00 -4°C° 0 mm 2 mps 733 mmHg 84%
    05:00 -4°C° 0 mm 2 mps 733 mmHg 85%
    06:00 -4°C° 0 mm 2 mps 734 mmHg 85%
    07:00 -2°C° 0 mm 1 mps 734 mmHg 86%
    08:00 -1°C° 0 mm 1 mps 735 mmHg 80%
    09:00 0°C° 0 mm 1 mps 735 mmHg 74%
    10:00 +1°C° 0 mm 1 mps 736 mmHg 68%
    11:00 +2°C° 0 mm 1 mps 736 mmHg 67%
    12:00 +3°C° 0 mm 1 mps 736 mmHg 65%
    13:00 +3°C° 0 mm 1 mps 736 mmHg 64%
    14:00 +2°C° 0 mm 1 mps 735 mmHg 72%
    15:00 0°C° 0 mm 1 mps 735 mmHg 81%
    16:00 -1°C° 0 mm 1 mps 735 mmHg 89%
    17:00 -3°C° 0 mm 2 mps 735 mmHg 89%
    18:00 -4°C° 0 mm 2 mps 736 mmHg 89%
    19:00 -4°C° 0 mm 2 mps 736 mmHg 89%
    20:00 -4°C° 0 mm 2 mps 736 mmHg 89%
    21:00 -4°C° 0 mm 2 mps 736 mmHg 88%
    22:00 -4°C° 0 mm 2 mps 736 mmHg 88%
    23:00 -4°C° 0 mm 2 mps 736 mmHg 88%

    8 December, Thursday

    Time Temperature Precipitation Wind Pressure Humidity
    00:00 -4°C° 0 mm 2 mps 736 mmHg 87%
    01:00 -4°C° 0 mm 2 mps 735 mmHg 87%
    02:00 -4°C° 0 mm 2 mps 735 mmHg 86%
    03:00 -4°C° 0 mm 2 mps 735 mmHg 85%
    04:00 -4°C° 0 mm 2 mps 734 mmHg 85%
    05:00 -4°C° 0 mm 2 mps 734 mmHg 84%
    06:00 -4°C° 0 mm 2 mps 734 mmHg 83%
    07:00 -4°C° 0 mm 2 mps 734 mmHg 82%
    08:00 -2°C° 0 mm 2 mps 734 mmHg 76%
    09:00 -1°C° 0 mm 2 mps 735 mmHg 69%
    10:00 +2°C° 0 mm 2 mps 735 mmHg 62%
    11:00 +3°C° 0 mm 2 mps 734 mmHg 60%
    12:00 +4°C° 0 mm 2 mps 734 mmHg 58%
    13:00 +5°C° 0 mm 2 mps 734 mmHg 56%
    14:00 +3°C° 0 mm 2 mps 733 mmHg 64%
    15:00 +1°C° 0 mm 2 mps 733 mmHg 71%
    16:00 +1°C° 0 mm 1 mps 732 mmHg 79%
    17:00 0°C° 0 mm 1 mps 732 mmHg 78%
    18:00 0°C° 0 mm 1 mps 732 mmHg 77%
    19:00 0°C° 0 mm 1 mps 732 mmHg 76%
    20:00 0°C° 0 mm 1 mps 732 mmHg 73%
    21:00 -2°C° 0 mm 2 mps 732 mmHg 69%
    22:00 -1°C° 0 mm 2 mps 732 mmHg 66%
    23:00 -1°C° 0 mm 2 mps 732 mmHg 63%

    9 December, Friday

    Time Temperature Precipitation Wind Pressure Humidity
    00:00 +1°C° 0 mm 1 mps 732 mmHg 60%
    01:00 +2°C° 0 mm 1 mps 732 mmHg 57%
    02:00 +1°C° 0 mm 2 mps 731 mmHg 54%
    03:00 +1°C° 0 mm 2 mps 731 mmHg 52%
    04:00 +1°C° 0 mm 2 mps 731 mmHg 50%
    05:00 +1°C° 0 mm 2 mps 731 mmHg 50%
    06:00 +1°C° 0 mm 2 mps 730 mmHg 51%
    07:00 +1°C° 0 mm 2 mps 730 mmHg 52%
    08:00 +2°C° 0 mm 2 mps 730 mmHg 48%
    09:00 +4°C° 0 mm 2 mps 731 mmHg 44%
    10:00 +6°C° 0 mm 2 mps 731 mmHg 40%
    11:00 +7°C° 0 mm 2 mps 731 mmHg 41%
    12:00 +7°C° 0 mm 2 mps 730 mmHg 41%
    13:00 +8°C° 0 mm 2 mps 730 mmHg 42%
    14:00 +6°C° 0 mm 2 mps 729 mmHg 49%
    15:00 +4°C° 0 mm 2 mps 729 mmHg 55%
    16:00 +2°C° 0 mm 2 mps 729 mmHg 62%
    17:00 +2°C° 0 mm 2 mps 729 mmHg 59%
    18:00 +2°C° 0 mm 2 mps 729 mmHg 57%
    19:00 +1°C° 0 mm 3 mps 729 mmHg 54%
    20:00 +1°C° 0 mm 3 mps 729 mmHg 54%
    21:00 +1°C° 0 mm 3 mps 729 mmHg 53%
    22:00 +1°C° 0 mm 3 mps 729 mmHg 53%
    23:00 +1°C° 0 mm 3 mps 729 mmHg 55%
    Show more